Location: Bouchavesnes-Bergen
(49.9859°N, 2.9203°E)
Time: 03:34:51
(UTC+00:00)

NOSS 3-4 (A) - Pass Details

Date: 09 March 2021
Orbit: 866 x 1346 km, 63.4° (Epoch: 06 April)

Event Time Altitude Azimuth Distance (km) Brightness Sun altitude
Exits shadow 04:16:36 12° 194° (SSW) 2,404 5.3 -19.6°
Maximum altitude 04:21:49 48° 122° (ESE) 1,165 4.2 -18.8°
Drops below altitude 10° 04:27:47 10° 50° (NE) 2,712 6.8 -17.9°
Sets 04:30:32 0° 45° (NE) 3,729 7.6 -17.5°
